{"data":{"norad_id":63031,"epoch":"2026-09-21T21:49:11.275392Z","epoch_age_seconds":43634,"freshness":"FRESH","line1":"1 63031U 25034C   26264.90915828  .00014936  00000+0  45232-3 0  9990","line2":"2 63031  53.1600  62.8189 0001450  51.3667 308.7466 15.34398153 89184","mean_motion":15.34398153,"eccentricity":0.000145,"inclination_deg":53.16,"raan_deg":62.8189,"arg_perigee_deg":51.3667,"mean_anomaly_deg":308.7466,"bstar":0.00045232,"rev_number":8918,"period_min":93.84787104863,"perigee_km":461.71680725502,"apogee_km":463.70065251668,"semimajor_km":6840.8457298858,"source":"CELESTRAK","updated_at":"2026-09-22T09:00:49.743579Z"}}